This demonstration page uses our WeatherBlox Daily Observations layout. Learn more.

Left ArrowRight Arrow

Hourly Observations for May 17, 2021

Temp ( °F °C ) Dew Point ( °F °C ) Humidity (%) Winds ( mph kmh ) Pressure ( in mb ) Visibility ( mi km ) Precip ( " mm )
12:51 am 00:51 Clear 70 21.1 30 -1.1 23 23 NNW 9 15 29.72 1007 10 16 N/A
1:51 am 01:51 Clear 68 20 31 -0.6 25 25 NNW 9 15 29.72 1006 10 16 N/A
2:51 am 02:51 Clear 67 19.4 29 -1.7 24 24 NNW 13 20 29.71 1006 10 16 N/A
3:51 am 03:51 Clear 64 17.8 28 -2.2 26 26 NNW 7 11 29.72 1007 10 16 N/A
4:51 am 04:51 Clear 60 15.6 28 -2.2 30 30 WNW 8 13 29.74 1007 10 16 N/A
5:51 am 05:51 Sunny 60 15.6 28 -2.2 30 30 NW 5 7 29.76 1008 10 16 N/A
6:51 am 06:51 Sunny 66 18.9 29 -1.7 25 25 WSW 3 6 29.77 1008 10 16 N/A
7:51 am 07:51 Sunny 68 20 31 -0.6 25 25 VRB 6 9 29.78 1009 10 16 N/A
8:51 am 08:51 Sunny 74 23.3 24 -4.4 15 15 WNW 13 20 29.78 1008 10 16 N/A
9:51 am 09:51 Sunny 74 23.3 23 -5 15 15 undefined N/A 29.78 1008 10 16 N/A
10:51 am 10:51 Sunny 77 25 22 -5.6 13 13 SW 7 11 29.75 1008 10 16 N/A
11:51 am 11:51 Sunny 79 26.1 23 -5 12 12 WNW 10 17 29.74 1007 10 16 N/A
12:51 pm 12:51 Sunny 80 26.7 23 -5 12 12 NW 9 15 29.72 1007 10 16 N/A
1:51 pm 13:51 Sunny 82 27.8 25 -3.9 12 12 undefined N/A 29.70 1006 10 16 N/A
2:51 pm 14:51 Sunny 83 28.3 24 -4.4 11 11 WNW 18 30 29.68 1005 10 16 N/A
3:51 pm 15:51 Sunny 83 28.3 25 -3.9 12 12 WNW 18 30 29.68 1005 10 16 N/A
4:51 pm 16:51 Sunny 82 27.8 26 -3.3 13 13 W 20 31 29.69 1006 10 16 N/A
5:51 pm 17:51 Sunny 80 26.7 25 -3.9 13 13 W 21 33 29.70 1006 10 16 N/A
6:51 pm 18:51 Sunny 77 25 26 -3.3 15 15 WNW 16 26 29.71 1006 10 16 N/A
7:51 pm 19:51 Clear 74 23.3 26 -3.3 17 17 WNW 15 24 29.74 1007 10 16 N/A
8:51 pm 20:51 Clear 73 22.8 27 -2.8 18 18 WNW 13 20 29.75 1008 10 16 N/A
9:51 pm 21:51 Clear 67 19.4 25 -3.9 20 20 NW 8 13 29.79 1009 10 16 N/A
10:51 pm 22:51 Clear 66 18.9 26 -3.3 22 22 WNW 6 9 29.78 1009 10 16 N/A
11:51 pm 23:51 Clear 66 18.9 26 -3.3 22 22 NW 9 15 29.78 1008 10 16 N/A

Powered by AerisWeather